Temp
19 19 20 20 21 22 22 24 24 24 26 26 26 27 28 29 30 30 38 36 34 32 30 33 34 35 35 39 40 40 38 37 36 35 34 35 34 36 36 34 35 35 34 33 30
19 19 20 20 21 22 23 24 25 25 26 27 27 27 28 29 29 37 35 35 33 32 32 37 38 38 39 40 40 40 38 37 37 37 35 35 35 35 35 35 34 35 35 32 31
19 19 19 20 21 22 23 24 25 26 26 27 27 27 28 28 35 40 34 34 33 33 37 38 39 40 40 41 40 40 37 38 38 37 37 36 35 36 35 34 35 34 33 33 32
18 19 19 20 21 21 23 24 25 26 27 27 28 28 28 27 37 35 34 34 32 32 37 39 41 41 41 40 40 38 39 38 37 37 36 36 37 36 36 36 37 35 34 33 33
17 19 19 20 21 22 23 24 26 26 27 27 28 28 28 35 39 33 33 33 30 32 38 41 41 41 41 40 41 39 39 38 38 37 37 37 36 36 36 37 37 36 34 34 34
17 18 19 20 21 22 23 24 26 26 27 27 28 28 29 36 35 35 34 31 34 36 39 40 41 41 41 40 39 40 40 38 38 38 37 37 36 36 36 37 36 35 34 34 34
18 19 20 20 21 23 24 25 26 26 27 28 28 27 35 38 35 35 35 34 36 38 41 40 40 41 42 40 40 40 38 38 38 38 37 38 35 36 36 36 35 35 35 35 35
17 19 20 21 21 23 24 25 26 26 27 27 27 26 36 35 35 35 36 36 36 37 38 39 39 41 41 41 40 39 39 37 38 38 37 36 34 37 36 35 35 35 35 34 35
18 19 20 21 22 23 25 25 25 25 26 26 26 32 37 33 35 36 36 38 37 37 38 38 40 41 41 40 39 39 31 38 37 38 38 37 37 37 37 36 35 35 35 35 35
18 18 20 22 23 24 25 25 24 25 25 25 29 34 37 38 38 37 37 38 39 39 39 39 40 40 41 41 29 36 39 39 38 38 38 37 37 37 36 36 35 35 35 35 35
18 19 20 22 23 24 25 28 30 30 31 36 37 38 37 38 36 37 37 38 40 39 38 40 39 39 41 42 39 40 40 39 39 40 39 38 38 38 37 37 36 36 36 35 35
18 19 20 23 24 24 24 33 31 30 32 37 37 37 36 36 37 38 37 38 38 38 40 40 39 41 42 41 40 40 40 40 40 39 38 39 39 39 38 37 37 37 36 36 36
18 19 20 23 24 25 29 30 29 29 33 37 37 37 37 37 37 39 39 39 39 38 40 39 40 42 41 40 39 40 40 39 39 39 40 39 38 39 38 37 38 38 38 37 36
18 19 20 24 23 28 31 28 29 29 33 36 36 37 37 37 37 40 39 40 39 38 40 39 41 40 40 39 40 40 41 40 39 39 37 40 28 37 39 37 37 38 38 38 37
18 19 21 21 20 30 29 28 28 30 34 37 37 36 38 37 39 38 39 40 38 39 39 39 40 40 39 40 41 40 41 40 40 39 40 41 40 38 40 38 37 38 38 39 38
19 19 20 20 21 27 27 28 30 32 35 37 37 36 36 38 39 39 38 39 40 39 39 39 41 41 40 41 41 41 40 40 40 40 39 41 40 26 39 39 39 39 39 39 39
20 19 19 18 29 26 27 31 33 34 38 37 37 38 37 37 38 37 37 37 37 36 37 38 39 40 40 39 40 39 39 38 38 39 39 42 40 30 28 41 41 41 40 39 39
20 20 22 21 23 25 28 32 32 37 38 38 38 38 37 39 38 38 37 37 38 39 39 38 37 39 40 39 39 39 40 39 37 39 39 42 39 39 29 43 42 42 42 40 39
20 25 25 26 24 25 30 33 35 37 38 37 38 37 38 39 39 38 38 38 39 39 38 39 38 41 41 40 40 40 39 41 40 41 40 38 41 42 43 43 43 42 42 41 40
16 26 29 26 25 28 31 31 36 36 35 36 36 38 37 38 37 38 38 39 39 40 40 40 37 40 40 40 40 40 42 39 40 37 37 40 40 41 41 42 43 42 42 41 40
18 30 28 27 27 30 31 34 36 36 35 35 36 37 38 39 38 38 39 40 40 40 40 40 39 38 39 39 38 39 39 39 41 40 38 38 39 43 42 42 42 42 42 42 41
25 29 28 27 30 32 33 34 21 34 35 35 35 36 37 39 38 38 38 39 40 41 38 39 39 38 38 40 40 40 40 40 39 38 40 39 39 43 43 43 43 43 43 42 41
24 28 29 28 30 32 33 33 33 33 34 35 35 36 38 37 37 39 39 40 40 40 39 40 38 37 38 39 39 39 40 41 41 41 39 39 40 44 44 43 43 43 43 42 41
24 28 30 30 30 30 31 30 31 33 32 34 34 36 35 36 38 38 39 39 39 39 30 37 39 39 38 39 40 38 39 40 41 40 40 40 40 42 42 42 43 43 42 42 40
25 27 25 29 30 28 29 29 30 31 33 33 32 33 34 35 36 37 38 39 38 29 36 38 38 39 40 40 40 40 39 39 39 40 39 40 40 42 42 42 42 42 41 41 39
22 22 24 25 27 27 26 28 29 30 31 31 32 34 35 34 36 35 38 38 38 38 37 39 37 38 38 40 39 39 40 40 39 40 40 40 40 42 42 42 41 41 42 41 39
19 20 21 23 27 28 29 29 29 29 29 30 30 30 31 32 31 32 34 35 37 38 38 38 38 38 37 39 38 37 39 40 40 40 40 39 40 42 42 41 41 41 40 41 39
Height
800 796 792 788 784 781 778 774 771 768 764 762 760 758 754 751 748 745 737 740 741 743 746 746 745 743 741 726 722 714 741 761 761 768 772 759 766 755 756 769 768 767 774 785 797
800 796 792 788 784 780 776 773 768 766 763 760 758 757 754 750 746 739 738 739 741 743 745 738 734 733 728 725 718 723 744 757 746 751 764 762 764 765 769 771 775 771 775 789 796
799 795 791 786 783 778 775 771 767 764 762 758 756 755 754 750 743 728 735 739 740 741 737 733 729 721 726 716 720 727 755 746 746 748 751 760 766 760 769 778 773 778 782 789 793
799 795 790 785 780 777 773 769 765 761 758 757 755 752 751 751 754 733 735 737 739 742 738 730 721 721 724 734 723 744 736 742 748 748 755 761 758 764 762 762 762 771 780 786 791
799 794 789 783 778 774 771 767 763 759 756 754 753 751 749 742 732 735 735 737 740 742 734 724 721 716 727 728 724 738 740 741 745 748 751 755 761 764 766 759 760 770 779 785 788
798 793 787 782 777 772 767 765 761 757 754 752 751 750 749 745 733 735 737 739 739 737 729 726 719 713 721 728 738 728 734 742 744 749 751 758 761 762 764 759 763 771 777 781 784
796 791 785 780 775 770 764 761 758 755 752 750 749 749 741 731 733 734 736 737 736 734 726 725 724 720 712 731 723 729 747 744 747 749 757 749 772 769 759 761 768 772 776 779 782
795 789 783 777 772 767 762 758 755 753 751 750 749 750 736 731 732 734 733 733 735 734 731 729 726 717 713 714 727 733 735 761 748 748 749 758 785 758 756 763 769 771 775 778 781
794 787 781 775 769 764 759 755 753 752 750 750 749 743 729 729 730 729 730 729 732 733 732 732 725 717 720 732 740 741 786 751 756 742 749 759 765 755 754 759 768 770 772 775 778
793 786 779 772 766 761 756 752 750 750 749 750 746 744 724 721 721 725 728 726 728 728 732 732 726 731 724 727 797 768 748 741 749 743 745 757 755 752 753 756 764 766 768 772 775
791 784 777 771 765 759 754 751 748 747 742 726 722 719 719 719 725 726 726 726 723 727 743 728 740 743 722 714 732 728 733 742 736 729 744 749 747 746 748 752 757 759 763 767 771
789 781 774 768 762 759 755 743 749 752 744 718 718 718 720 721 722 719 723 729 729 741 728 731 745 716 705 715 728 731 736 736 730 731 742 737 740 731 738 744 746 751 755 761 765
787 780 771 765 760 758 754 751 753 751 743 712 711 715 718 721 719 715 717 718 726 735 728 735 727 710 718 731 740 734 733 745 740 732 727 733 749 740 731 736 737 739 742 750 758
785 777 769 763 762 756 749 753 752 751 747 722 719 712 712 714 722 701 710 714 720 734 724 728 709 721 728 737 730 738 716 727 739 744 762 731 823 749 730 737 739 737 738 742 750
783 775 767 762 760 753 754 753 752 749 760 713 712 709 703 716 701 712 707 709 727 727 724 730 724 727 738 732 721 732 720 728 731 738 729 724 743 738 724 737 734 733 732 733 739
780 773 766 763 762 757 755 753 751 758 754 716 706 715 718 710 706 705 711 708 707 719 718 720 701 714 722 716 715 714 725 733 731 733 753 717 728 804 732 727 723 719 723 727 730
777 770 765 763 754 758 755 749 756 752 702 715 714 706 712 717 711 718 724 729 733 748 743 730 724 717 716 730 717 730 742 764 769 759 753 702 726 775 776 710 706 706 712 718 724
772 766 763 760 759 758 754 749 762 715 709 695 701 701 716 704 709 712 721 728 715 717 723 739 748 720 711 727 730 733 734 751 777 756 741 701 737 729 748 694 694 695 694 708 718
768 761 759 757 757 757 750 751 731 711 702 710 703 716 712 701 704 709 715 715 706 708 730 727 730 694 702 708 716 727 739 713 728 720 736 743 708 690 687 692 690 690 695 704 710
773 760 751 756 756 754 750 745 714 706 712 710 723 706 715 707 715 708 711 698 700 692 694 707 738 701 704 704 708 716 701 741 731 764 767 733 728 724 708 701 694 692 698 698 704
772 751 751 754 754 748 747 724 711 702 711 716 714 706 702 697 701 705 704 692 688 693 695 701 713 718 711 719 726 727 731 722 716 726 754 755 736 684 696 697 700 694 694 691 698
769 756 751 752 751 735 734 718 737 718 709 713 710 708 703 690 697 701 703 692 678 683 709 699 706 725 719 698 698 706 716 719 738 745 720 729 736 681 682 683 688 688 688 687 692
772 755 747 748 749 731 720 723 721 724 716 713 714 702 693 700 707 691 687 673 681 688 700 693 717 732 719 706 702 714 705 702 707 708 730 739 725 667 673 679 682 686 684 688 693
776 756 740 740 736 741 735 736 732 713 722 712 712 703 707 709 692 696 689 682 684 688 704 695 701 708 719 709 693 718 713 702 703 720 721 716 709 691 688 686 681 679 682 684 694
773 759 766 747 741 747 745 741 740 734 716 716 721 717 714 716 704 702 685 683 687 705 699 700 713 697 689 684 692 695 708 709 713 706 716 703 705 691 682 682 682 678 684 686 695
787 784 772 765 754 753 750 746 738 733 729 729 723 709 704 712 703 706 689 685 689 688 696 689 711 698 702 688 696 703 692 697 702 703 705 701 703 676 672 673 682 683 680 688 695
797 793 788 769 754 748 741 736 736 735 734 727 726 730 726 717 716 709 699 692 683 682 689 692 697 702 719 694 700 718 699 692 690 690 699 716 697 677 679 681 683 682 682 683 688
Wind_Speed
24 24 24 24 25 24 23 22 22 23 20 19 17 16 16 17 16 8 7 10 5 14 13 11 8 8 8 5 5 11 2 8 12 12 11 11 13 10 11 13 11 3 18 23 25
24 25 25 26 25 24 24 24 23 22 20 19 17 15 14 17 13 15 2 5 6 15 12 14 11 13 9 4 5 5 11 11 13 14 13 13 11 11 13 13 10 11 23 27 27
25 25 26 27 26 25 25 23 23 22 21 18 15 14 12 14 10 5 8 10 11 12 11 8 2 11 5 8 9 15 11 10 14 14 15 13 12 15 13 11 13 16 21 22 24
26 26 26 28 27 26 25 24 23 23 21 17 14 13 12 6 5 6 3 14 17 14 13 13 12 13 10 12 3 11 16 14 15 13 14 13 14 10 14 9 15 15 19 20 19
26 26 27 28 28 26 25 25 23 23 19 17 12 9 6 10 5 2 2 14 16 13 16 9 13 5 6 6 7 13 12 14 14 13 12 12 9 11 5 4 12 17 17 18 17
27 27 28 28 28 27 27 24 23 20 16 12 8 5 8 14 4 3 6 14 15 16 13 9 6 11 4 8 7 7 14 14 12 11 11 10 10 10 7 9 13 17 18 17 17
28 29 29 28 28 27 27 24 20 16 12 9 3 5 11 8 2 5 9 16 17 14 10 6 6 13 8 9 5 11 14 12 12 11 10 8 10 9 12 11 14 16 16 16 15
29 31 30 29 28 27 26 20 15 10 5 3 1 6 9 4 6 8 12 15 16 12 11 5 9 11 14 12 10 12 18 14 11 11 8 11 9 10 14 14 15 17 16 15 15
32 34 31 30 28 28 23 16 10 5 3 2 6 9 10 6 11 14 14 14 14 12 11 7 13 15 6 16 14 14 12 19 13 12 6 13 11 13 15 15 15 17 16 15 15
35 37 33 30 27 26 17 14 9 7 6 8 12 8 10 9 13 13 15 10 16 12 12 12 11 12 14 15 3 17 15 3 11 16 11 10 4 14 15 16 16 17 17 17 17
38 40 35 29 26 18 17 6 5 7 13 15 2 10 3 4 6 13 17 15 15 15 17 17 13 15 18 9 20 11 1 3 6 11 12 12 12 15 17 17 17 18 17 18 18
40 41 39 30 20 8 10 6 7 6 9 14 14 11 1 5 10 16 20 16 17 17 20 15 16 18 7 6 4 8 9 10 9 6 9 10 13 18 17 19 18 18 18 19 19
42 42 41 27 10 3 7 5 5 8 7 10 12 14 13 12 14 18 19 21 18 19 21 21 18 20 4 9 11 12 15 3 2 8 14 10 12 13 19 16 17 18 18 18 20
44 43 40 21 4 5 4 0 7 5 6 14 11 9 10 13 15 10 22 20 18 18 22 15 24 6 10 13 13 18 9 3 6 11 7 13 5 26 19 19 18 19 18 19 21
45 44 30 14 10 4 4 5 7 6 6 10 10 7 11 17 13 13 16 19 19 17 16 19 18 13 15 17 15 16 2 6 6 13 18 12 8 14 16 18 17 20 20 20 21
42 40 19 6 5 8 7 7 7 7 4 8 8 11 15 19 12 14 15 12 14 16 19 21 13 18 17 17 14 12 6 11 14 13 13 15 10 8 12 14 17 19 20 21 21
40 28 9 6 5 7 6 7 7 9 5 8 11 16 18 14 14 14 18 18 14 13 15 19 23 14 14 16 11 15 13 11 12 12 13 3 2 13 16 5 7 17 20 21 21
40 17 8 8 9 7 9 8 10 5 3 4 4 13 16 17 17 15 19 16 19 19 15 14 17 24 15 19 18 20 19 14 12 13 13 13 5 9 34 9 7 6 14 20 22
36 7 6 3 6 6 8 10 13 7 5 4 11 11 14 14 11 17 17 18 20 19 18 8 15 8 22 16 19 21 18 22 24 19 16 17 10 13 14 6 9 11 7 17 22
24 13 4 2 2 8 8 17 12 4 4 8 15 15 15 15 15 16 16 17 16 19 17 9 9 14 11 15 18 20 15 16 16 17 15 10 11 3 7 2 7 11 7 15 19
9 6 6 2 5 7 11 14 8 3 6 10 13 15 15 12 16 16 13 6 15 14 15 18 9 10 9 18 18 13 17 13 18 16 15 13 8 4 9 3 3 2 6 10 18
8 5 4 4 8 8 13 15 4 12 10 11 7 15 17 17 14 19 15 13 15 13 18 17 11 10 14 15 19 21 20 21 14 17 15 12 6 6 3 3 2 4 4 10 16
7 7 2 7 8 10 13 9 12 16 11 10 12 12 11 17 11 17 13 7 7 9 8 12 10 11 13 12 8 14 24 19 21 19 19 16 11 10 6 4 6 6 8 7 14
5 4 4 5 6 12 14 9 15 9 12 15 12 15 10 14 17 13 14 9 9 13 8 7 13 15 10 11 14 18 19 19 18 15 19 19 19 4 6 10 9 5 8 10 14
3 4 4 4 2 6 11 12 13 14 8 9 11 17 17 16 16 18 14 13 13 9 6 12 16 16 12 8 8 14 17 20 21 19 17 12 11 11 3 3 12 7 5 11 16
5 4 8 11 14 13 11 13 14 14 15 12 15 18 16 15 17 15 15 19 18 14 14 16 16 15 11 6 7 11 17 19 18 19 16 17 17 13 9 4 6 9 9 13 18
9 11 6 8 12 10 10 11 8 7 10 16 14 10 8 8 16 18 18 17 19 11 19 17 14 16 12 15 10 12 13 15 11 11 14 15 13 16 7 7 7 5 10 14 20
Wind_Direction
356 354 352 350 349 348 346 341 339 337 333 333 334 333 332 328 321 277 258 99 165 163 161 173 200 203 222 214 241 271 128 96 126 129 125 123 137 141 91 135 163 125 140 135 147
354 352 350 349 346 344 341 338 334 336 333 329 329 329 332 326 307 257 189 183 183 167 187 202 175 193 207 145 204 224 65 75 80 112 125 130 139 130 151 139 130 142 114 142 154
353 350 348 346 344 341 339 337 332 330 329 325 324 323 328 322 274 135 182 190 183 190 237 280 210 230 131 97 64 92 106 105 106 118 131 129 130 153 148 159 153 138 143 154 161
351 348 346 343 341 340 338 334 329 326 323 319 317 313 317 275 247 79 187 193 181 194 260 238 233 232 180 106 119 97 97 101 109 131 130 139 140 156 180 164 157 150 153 163 171
349 346 344 342 339 337 333 331 327 323 319 316 310 296 310 226 242 67 186 186 182 208 244 259 259 214 108 108 143 120 105 115 128 134 142 136 148 136 146 180 146 152 161 171 180
350 346 343 341 339 335 329 329 326 321 319 318 305 254 251 252 91 144 162 175 194 220 237 248 319 327 116 141 108 129 121 121 142 146 136 159 136 175 150 148 153 159 172 179 186
352 347 342 339 338 332 325 326 323 320 324 323 274 208 263 262 131 189 190 191 205 222 245 244 286 250 166 125 136 142 135 141 152 161 155 168 153 221 153 156 160 169 176 182 186
354 349 342 338 336 330 324 322 318 320 334 10 161 243 273 130 219 206 194 193 210 225 265 278 261 273 257 105 184 205 166 157 150 163 160 192 176 178 165 170 170 174 179 183 186
355 350 343 338 334 329 323 313 303 298 306 294 258 232 257 148 202 203 196 196 197 210 220 274 252 248 201 203 176 194 292 137 152 183 160 208 140 153 177 179 176 182 182 185 185
355 351 344 340 334 328 320 306 269 268 273 254 265 267 212 226 164 186 196 213 191 199 206 225 231 223 219 228 76 276 150 160 147 169 193 201 153 161 186 190 184 190 185 188 190
352 350 344 340 334 326 326 285 214 200 221 258 86 242 145 138 154 203 186 203 201 198 213 204 220 224 215 217 163 228 286 189 120 126 197 211 223 173 182 198 189 194 190 192 194
350 348 343 339 332 327 308 286 33 342 296 255 245 252 195 288 203 198 182 202 204 207 215 207 232 238 256 66 247 236 234 186 123 160 219 217 221 165 187 201 198 198 189 196 193
348 347 341 339 327 282 298 32 340 326 259 226 215 224 210 210 236 187 195 207 204 218 217 233 207 241 200 193 244 240 251 178 37 168 222 227 229 204 181 199 207 205 196 193 196
346 344 340 341 299 330 239 213 321 312 267 157 193 206 182 207 225 232 192 214 228 228 234 217 252 220 209 236 220 251 221 99 242 246 241 239 113 235 181 187 201 205 205 194 194
344 341 339 333 307 253 24 311 312 253 272 160 128 117 193 205 135 190 195 217 225 223 244 226 234 215 239 232 229 265 235 250 248 262 267 217 261 132 170 178 198 209 205 205 189
341 338 340 336 246 281 297 291 260 235 247 143 139 183 179 212 193 144 185 234 228 241 230 253 222 232 232 240 248 278 236 246 251 252 267 255 214 165 198 171 187 193 210 205 196
338 333 318 294 338 314 286 246 235 248 84 160 189 167 193 187 194 178 188 198 207 212 220 219 241 219 248 254 194 235 235 235 221 224 242 202 258 134 312 190 117 175 188 202 204
335 323 293 259 287 287 256 229 249 296 278 69 238 189 196 185 210 195 192 207 216 221 242 214 211 220 203 232 232 210 236 247 235 242 241 142 200 156 193 152 127 113 172 189 195
337 306 257 324 278 236 247 226 233 276 21 258 185 226 203 209 220 202 219 211 212 218 243 238 230 207 210 211 236 241 216 247 269 279 283 202 179 148 209 144 160 136 168 176 189
328 288 234 296 236 237 242 252 285 341 300 253 258 207 230 198 201 213 208 222 235 207 232 250 272 200 189 218 225 242 249 224 251 272 273 270 232 204 143 51 2 115 163 169 186
287 279 93 256 242 232 239 246 261 175 254 251 250 272 247 222 201 227 230 198 208 176 206 245 238 147 221 207 216 204 244 254 260 222 257 264 256 212 109 135 272 125 206 168 176
301 277 72 266 242 235 245 264 29 285 212 255 260 284 288 260 189 234 229 213 179 210 193 219 251 224 203 212 218 243 216 232 241 249 262 267 250 92 121 130 275 311 160 160 175
303 289 226 248 259 244 228 256 265 271 250 244 237 239 252 268 249 236 203 157 160 200 219 216 230 252 238 155 211 231 235 227 235 246 243 258 250 253 243 129 290 278 118 170 179
286 291 177 225 289 290 299 310 281 200 280 290 271 272 257 251 261 249 239 147 188 229 34 302 245 241 250 233 203 197 231 241 249 234 234 241 258 269 265 295 289 215 171 168 188
272 30 16 290 152 320 305 289 294 282 229 276 267 246 249 245 241 236 249 182 189 159 224 232 248 258 285 284 294 209 204 226 238 256 271 252 246 272 281 324 355 71 153 157 186
319 343 349 290 279 268 256 259 270 266 264 275 259 276 225 245 258 310 237 237 190 179 225 222 253 277 290 234 247 256 211 213 221 234 256 275 285 303 319 312 296 299 201 193 189
4 300 276 290 278 267 265 296 269 342 285 254 295 335 278 316 331 307 301 300 292 250 207 226 234 249 243 240 219 241 222 235 223 216 241 254 250 252 249 2 315 249 210 199 184